Time,TemperatureF,DewpointF,PressureIn,WindDirection,WindDirectionDegrees,WindSpeedMPH,WindSpeedGustMPH,Humidity,HourlyPrecipIn,Conditions,Clouds,dailyrainin,SoftwareType,DateUTC
2013-02-15 00:15:00,61.5,26.0,30.16,NW,308,0.0,1.0,26,0.00,,,0.00,weatherlink.com 1.10,2013-02-15 08:15:00,
2013-02-15 00:30:00,61.6,28.0,30.16,NNW,333,1.0,1.0,28,0.00,,,0.00,weatherlink.com 1.10,2013-02-15 08:30:00,
2013-02-15 00:45:00,60.1,28.0,30.16,East,97,1.0,2.0,29,0.00,,,0.00,weatherlink.com 1.10,2013-02-15 08:45:00,
2013-02-15 01:00:00,58.6,29.0,30.16,ESE,113,0.0,1.0,33,0.00,,,0.00,weatherlink.com 1.10,2013-02-15 09:00:00,
2013-02-15 01:15:00,58.0,29.0,30.15,East,101,0.0,1.0,33,0.00,,,0.00,weatherlink.com 1.10,2013-02-15 09:15:00,
2013-02-15 01:30:00,56.9,29.0,30.15,East,93,0.0,1.0,35,0.00,,,0.00,weatherlink.com 1.10,2013-02-15 09:30:00,
2013-02-15 01:45:00,57.1,27.0,30.15,SW,218,0.0,1.0,32,0.00,,,0.00,weatherlink.com 1.10,2013-02-15 09:45:00,
2013-02-15 02:00:00,55.9,28.0,30.14,SW,216,1.0,1.0,35,0.00,,,0.00,weatherlink.com 1.10,2013-02-15 10:00:00,
2013-02-15 02:15:00,56.8,28.0,30.14,NNW,336,2.0,3.0,33,0.00,,,0.00,weatherlink.com 1.10,2013-02-15 10:15:00,
2013-02-15 02:30:00,60.2,27.0,30.14,NNW,328,4.0,5.0,28,0.00,,,0.00,weatherlink.com 1.10,2013-02-15 10:30:00,
2013-02-15 02:45:00,69.0,25.0,30.14,NW,305,3.0,11.0,19,0.00,,,0.00,weatherlink.com 1.10,2013-02-15 10:45:00,
2013-02-15 03:00:00,70.7,25.0,30.15,West,259,3.0,11.0,18,0.00,,,0.00,weatherlink.com 1.10,2013-02-15 11:00:00,
2013-02-15 03:15:00,70.3,25.0,30.15,NW,309,3.0,11.0,18,0.00,,,0.00,weatherlink.com 1.10,2013-02-15 11:15:00,
2013-02-15 03:30:00,70.6,24.0,30.15,NW,305,7.0,11.0,17,0.00,,,0.00,weatherlink.com 1.10,2013-02-15 11:30:00,
2013-02-15 03:45:00,68.8,26.0,30.16,South,174,1.0,6.0,20,0.00,,,0.00,weatherlink.com 1.10,2013-02-15 11:45:00,
2013-02-15 04:00:00,64.0,26.0,30.16,SSW,212,0.0,3.0,24,0.00,,,0.00,weatherlink.com 1.10,2013-02-15 12:00:00,
2013-02-15 04:15:00,61.2,27.0,30.16,South,173,1.0,3.0,27,0.00,,,0.00,weatherlink.com 1.10,2013-02-15 12:15:00,
2013-02-15 04:30:00,59.2,28.0,30.16,SSE,150,0.0,1.0,30,0.00,,,0.00,weatherlink.com 1.10,2013-02-15 12:30:00,
2013-02-15 04:45:00,57.8,27.0,30.17,WNW,290,0.0,1.0,31,0.00,,,0.00,weatherlink.com 1.10,2013-02-15 12:45:00,
2013-02-15 05:00:00,57.4,26.0,30.17,WNW,290,0.0,1.0,30,0.00,,,0.00,weatherlink.com 1.10,2013-02-15 13:00:00,
2013-02-15 05:15:00,57.1,27.0,30.18,West,266,0.0,2.0,31,0.00,,,0.00,weatherlink.com 1.10,2013-02-15 13:15:00,
2013-02-15 05:30:00,64.5,25.0,30.18,NW,326,2.0,7.0,22,0.00,,,0.00,weatherlink.com 1.10,2013-02-15 13:30:00,
2013-02-15 05:45:00,68.6,25.0,30.18,NNW,345,7.0,12.0,19,0.00,,,0.00,weatherlink.com 1.10,2013-02-15 13:45:00,
2013-02-15 06:00:00,69.4,24.0,30.19,NW,307,6.0,19.0,18,0.00,,,0.00,weatherlink.com 1.10,2013-02-15 14:00:00,
2013-02-15 06:15:00,69.2,24.0,30.19,West,274,5.0,17.0,18,0.00,,,0.00,weatherlink.com 1.10,2013-02-15 14:15:00,
2013-02-15 06:30:00,68.9,24.0,30.20,NW,307,3.0,21.0,18,0.00,,,0.00,weatherlink.com 1.10,2013-02-15 14:30:00,
2013-02-15 06:45:00,69.1,24.0,30.20,NW,319,4.0,18.0,18,0.00,,,0.00,weatherlink.com 1.10,2013-02-15 14:45:00,
2013-02-15 07:00:00,69.2,22.0,30.20,WNW,302,13.0,19.0,17,0.00,,,0.00,weatherlink.com 1.10,2013-02-15 15:00:00,
2013-02-15 07:15:00,69.8,23.0,30.21,North,10,8.0,18.0,17,0.00,,,0.00,weatherlink.com 1.10,2013-02-15 15:15:00,
2013-02-15 07:30:00,70.4,22.0,30.22,WNW,293,5.0,20.0,16,0.00,,,0.00,weatherlink.com 1.10,2013-02-15 15:30:00,
2013-02-15 07:45:00,70.5,22.0,30.22,ENE,70,4.0,22.0,16,0.00,,,0.00,weatherlink.com 1.10,2013-02-15 15:45:00,
2013-02-15 08:00:00,70.5,22.0,30.23,NW,305,13.0,19.0,16,0.00,,,0.00,weatherlink.com 1.10,2013-02-15 16:00:00,
2013-02-15 08:15:00,70.6,21.0,30.23,NW,311,6.0,17.0,15,0.00,,,0.00,weatherlink.com 1.10,2013-02-15 16:15:00,
2013-02-15 08:31:00,71.1,21.0,30.24,NW,304,3.0,17.0,15,0.00,,,0.00,weatherlink.com 1.10,2013-02-15 16:31:00,
2013-02-15 08:46:00,71.4,21.0,30.24,NW,307,14.0,17.0,15,0.00,,,0.00,weatherlink.com 1.10,2013-02-15 16:46:00,
2013-02-15 09:01:00,71.7,22.0,30.24,WNW,289,5.0,16.0,15,0.00,,,0.00,weatherlink.com 1.10,2013-02-15 17:01:00,
2013-02-15 09:16:00,72.6,21.0,30.24,WSW,256,2.0,11.0,14,0.00,,,0.00,weatherlink.com 1.10,2013-02-15 17:16:00,
2013-02-15 09:31:00,72.3,20.0,30.24,NW,304,7.0,17.0,14,0.00,,,0.00,weatherlink.com 1.10,2013-02-15 17:31:00,
2013-02-15 09:46:00,72.5,21.0,30.24,NNE,19,7.0,16.0,14,0.00,,,0.00,weatherlink.com 1.10,2013-02-15 17:46:00,
2013-02-15 10:01:00,72.8,21.0,30.25,WSW,240,9.0,17.0,14,0.00,,,0.00,weatherlink.com 1.10,2013-02-15 18:01:00,
2013-02-15 10:16:00,73.6,20.0,30.24,NW,317,7.0,12.0,13,0.00,,,0.00,weatherlink.com 1.10,2013-02-15 18:16:00,
2013-02-15 10:31:00,74.5,20.0,30.24,WNW,289,8.0,9.0,13,0.00,,,0.00,weatherlink.com 1.10,2013-02-15 18:31:00,
2013-02-15 10:46:00,74.5,20.0,30.24,West,270,7.0,11.0,13,0.00,,,0.00,weatherlink.com 1.10,2013-02-15 18:46:00,
2013-02-15 11:01:00,74.9,17.0,30.24,NNW,338,6.0,15.0,11,0.00,,,0.00,weatherlink.com 1.10,2013-02-15 19:01:00,
2013-02-15 11:16:00,75.1,17.0,30.23,NNW,342,6.0,9.0,11,0.00,,,0.00,weatherlink.com 1.10,2013-02-15 19:16:00,
2013-02-15 11:31:00,76.3,16.0,30.23,NNW,347,6.0,8.0,10,0.00,,,0.00,weatherlink.com 1.10,2013-02-15 19:31:00,
2013-02-15 11:46:00,77.0,14.0,30.23,SW,231,2.0,9.0,9,0.00,,,0.00,weatherlink.com 1.10,2013-02-15 19:46:00,
2013-02-15 12:01:00,78.4,15.0,30.22,East,79,3.0,3.0,9,0.00,,,0.00,weatherlink.com 1.10,2013-02-15 20:01:00,
2013-02-15 12:16:00,78.8,15.0,30.21,NNE,16,1.0,4.0,9,0.00,,,0.00,weatherlink.com 1.10,2013-02-15 20:16:00,
2013-02-15 12:31:00,79.4,16.0,30.21,SSW,212,3.0,5.0,9,0.00,,,0.00,weatherlink.com 1.10,2013-02-15 20:31:00,
2013-02-15 12:46:00,79.8,13.0,30.20,SE,131,1.0,7.0,8,0.00,,,0.00,weatherlink.com 1.10,2013-02-15 20:46:00,
2013-02-15 13:01:00,78.5,17.0,30.19,SE,126,5.0,9.0,10,0.00,,,0.00,weatherlink.com 1.10,2013-02-15 21:01:00,
2013-02-15 13:16:00,78.9,15.0,30.19,ENE,77,2.0,7.0,9,0.00,,,0.00,weatherlink.com 1.10,2013-02-15 21:16:00,
2013-02-15 13:31:00,79.5,13.0,30.18,SE,146,2.0,5.0,8,0.00,,,0.00,weatherlink.com 1.10,2013-02-15 21:31:00,
2013-02-15 13:46:00,79.4,16.0,30.18,SE,127,7.0,7.0,9,0.00,,,0.00,weatherlink.com 1.10,2013-02-15 21:46:00,
2013-02-15 14:01:00,79.9,16.0,30.17,ESE,122,1.0,5.0,9,0.00,,,0.00,weatherlink.com 1.10,2013-02-15 22:01:00,
2013-02-15 14:16:00,80.5,14.0,30.16,SW,219,1.0,5.0,8,0.00,,,0.00,weatherlink.com 1.10,2013-02-15 22:16:00,
2013-02-15 14:31:00,79.7,16.0,30.16,South,173,6.0,7.0,9,0.00,,,0.00,weatherlink.com 1.10,2013-02-15 22:31:00,
2013-02-15 14:46:00,79.1,15.0,30.16,SE,134,2.0,6.0,9,0.00,,,0.00,weatherlink.com 1.10,2013-02-15 22:46:00,
2013-02-15 15:01:00,79.0,15.0,30.16,SE,138,2.0,7.0,9,0.00,,,0.00,weatherlink.com 1.10,2013-02-15 23:01:00,
2013-02-15 15:16:00,78.7,15.0,30.15,SSE,156,3.0,4.0,9,0.00,,,0.00,weatherlink.com 1.10,2013-02-15 23:16:00,
2013-02-15 15:31:00,77.7,14.0,30.15,SSW,198,3.0,7.0,9,0.00,,,0.00,weatherlink.com 1.10,2013-02-15 23:31:00,
2013-02-15 15:46:00,77.5,14.0,30.15,SSE,162,4.0,4.0,9,0.00,,,0.00,weatherlink.com 1.10,2013-02-15 23:46:00,
2013-02-15 16:01:00,77.3,17.0,30.14,SE,134,0.0,3.0,10,0.00,,,0.00,weatherlink.com 1.10,2013-02-16 00:01:00,
2013-02-15 16:16:00,76.9,16.0,30.15,SE,134,0.0,1.0,10,0.00,,,0.00,weatherlink.com 1.10,2013-02-16 00:16:00,
2013-02-15 16:31:00,76.6,16.0,30.15,SSE,155,0.0,2.0,10,0.00,,,0.00,weatherlink.com 1.10,2013-02-16 00:31:00,
2013-02-15 16:46:00,75.8,18.0,30.15,South,179,0.0,1.0,11,0.00,,,0.00,weatherlink.com 1.10,2013-02-16 00:46:00,
2013-02-15 17:01:00,74.3,18.0,30.15,ESE,115,0.0,0.0,12,0.00,,,0.00,weatherlink.com 1.10,2013-02-16 01:01:00,
2013-02-15 17:16:00,73.1,19.0,30.16,ESE,117,0.0,1.0,13,0.00,,,0.00,weatherlink.com 1.10,2013-02-16 01:16:00,
2013-02-15 17:31:00,71.4,20.0,30.16,ESE,117,0.0,0.0,14,0.00,,,0.00,weatherlink.com 1.10,2013-02-16 01:31:00,
2013-02-15 17:47:00,69.6,21.0,30.16,ESE,117,0.0,0.0,16,0.00,,,0.00,weatherlink.com 1.10,2013-02-16 01:47:00,
2013-02-15 18:02:00,68.4,22.0,30.17,ESE,117,0.0,1.0,17,0.00,,,0.00,weatherlink.com 1.10,2013-02-16 02:02:00,
2013-02-15 18:17:00,67.3,25.0,30.17,ESE,117,0.0,0.0,20,0.00,,,0.00,weatherlink.com 1.10,2013-02-16 02:17:00,
2013-02-15 18:32:00,66.1,20.0,30.18,ESE,117,0.0,1.0,17,0.00,,,0.00,weatherlink.com 1.10,2013-02-16 02:32:00,
2013-02-15 18:47:00,66.4,24.0,30.18,NNE,23,0.0,0.0,20,0.00,,,0.00,weatherlink.com 1.10,2013-02-16 02:47:00,
2013-02-15 19:02:00,65.1,23.0,30.18,ESE,111,0.0,1.0,20,0.00,,,0.00,weatherlink.com 1.10,2013-02-16 03:02:00,
2013-02-15 19:17:00,66.3,21.0,30.19,ESE,110,0.0,1.0,18,0.00,,,0.00,weatherlink.com 1.10,2013-02-16 03:17:00,
2013-02-15 19:32:00,64.5,22.0,30.19,ESE,117,0.0,1.0,20,0.00,,,0.00,weatherlink.com 1.10,2013-02-16 03:32:00,
2013-02-15 19:47:00,63.9,23.0,30.19,ESE,117,0.0,0.0,21,0.00,,,0.00,weatherlink.com 1.10,2013-02-16 03:47:00,
2013-02-15 20:02:00,62.9,22.0,30.19,ESE,117,0.0,1.0,21,0.00,,,0.00,weatherlink.com 1.10,2013-02-16 04:02:00,
2013-02-15 20:17:00,62.3,23.0,30.19,SW,224,1.0,2.0,22,0.00,,,0.00,weatherlink.com 1.10,2013-02-16 04:17:00,
2013-02-15 20:32:00,62.9,21.0,30.20,NNE,25,0.0,1.0,20,0.00,,,0.00,weatherlink.com 1.10,2013-02-16 04:32:00,
2013-02-15 20:47:00,63.7,19.0,30.20,WSW,243,1.0,2.0,18,0.00,,,0.00,weatherlink.com 1.10,2013-02-16 04:47:00,
2013-02-15 21:02:00,63.3,19.0,30.20,WNW,300,0.0,2.0,18,0.00,,,0.00,weatherlink.com 1.10,2013-02-16 05:02:00,
2013-02-15 21:17:00,62.8,21.0,30.21,SE,141,1.0,1.0,20,0.00,,,0.00,weatherlink.com 1.10,2013-02-16 05:17:00,
2013-02-15 21:32:00,63.6,19.0,30.21,WNW,299,0.0,2.0,18,0.00,,,0.00,weatherlink.com 1.10,2013-02-16 05:32:00,
2013-02-15 21:47:00,63.2,20.0,30.21,NNE,17,1.0,2.0,19,0.00,,,0.00,weatherlink.com 1.10,2013-02-16 05:47:00,
2013-02-15 22:02:00,63.7,21.0,30.20,NW,323,1.0,4.0,19,0.00,,,0.00,weatherlink.com 1.10,2013-02-16 06:02:00,
2013-02-15 22:17:00,64.2,18.0,30.20,WSW,252,0.0,1.0,17,0.00,,,0.00,weatherlink.com 1.10,2013-02-16 06:17:00,
2013-02-15 22:32:00,62.7,20.0,30.21,West,279,0.0,1.0,19,0.00,,,0.00,weatherlink.com 1.10,2013-02-16 06:32:00,
2013-02-15 22:47:00,61.9,20.0,30.21,SSE,155,2.0,2.0,20,0.00,,,0.00,weatherlink.com 1.10,2013-02-16 06:47:00,
2013-02-15 23:02:00,59.7,19.0,30.21,SSE,155,0.0,2.0,21,0.00,,,0.00,weatherlink.com 1.10,2013-02-16 07:02:00,
2013-02-15 23:17:00,58.8,20.0,30.21,SSE,155,0.0,0.0,22,0.00,,,0.00,weatherlink.com 1.10,2013-02-16 07:17:00,
2013-02-15 23:32:00,57.5,22.0,30.21,SSE,155,0.0,1.0,25,0.00,,,0.00,weatherlink.com 1.10,2013-02-16 07:32:00,
2013-02-15 23:47:00,56.5,24.0,30.21,SSE,155,0.0,1.0,29,0.00,,,0.00,weatherlink.com 1.10,2013-02-16 07:47:00,